Theta_e
337 335 334 334 329 330 331 328 327 321 322 333 334 335 336 336 336 337 335 328 328 324 323 322 323 323 324 325 326 328 329 331 332 334 336 336 338 339
336 335 333 331 331 330 329 328 330 326 323 334 335 333 333 333 335 335 335 329 324 323 323 322 320 320 321 321 323 324 326 327 327 328 330 331 333 335
333 332 331 330 328 330 330 330 330 330 325 332 329 331 331 332 333 333 334 333 330 320 320 317 314 316 316 318 320 322 323 324 324 325 326 327 329 330
332 333 332 333 329 330 331 330 330 331 329 327 329 328 329 330 331 331 331 330 328 320 316 315 313 313 313 313 313 313 312 313 314 317 319 321 323 327
333 334 334 335 332 330 330 331 335 334 333 329 327 326 327 327 326 327 328 327 325 321 318 316 315 315 315 314 314 314 312 311 311 312 315 318 321 322
332 335 336 338 337 335 335 336 333 331 328 328 325 325 325 325 325 325 324 327 326 324 319 318 317 317 317 317 318 318 314 312 313 310 310 311 313 315
327 331 335 335 331 334 341 340 332 332 328 326 323 322 321 320 324 323 322 324 324 324 322 322 322 323 323 319 322 319 315 313 311 309 307 310 308 309
323 325 329 327 329 320 319 320 330 331 329 326 324 322 322 324 322 321 322 321 321 325 323 324 325 325 327 326 315 312 310 310 309 308 308 307 305 304
321 323 325 329 326 335 323 314 315 313 320 329 326 326 325 324 322 320 322 324 323 323 325 322 326 326 328 326 312 309 307 306 306 306 306 306 304 303
321 323 324 326 329 331 336 332 329 327 326 329 332 329 331 327 327 326 326 324 324 324 325 322 322 324 327 328 310 308 306 305 305 306 305 304 303 302
323 325 326 328 317 306 331 331 328 324 314 309 311 308 307 308 317 326 323 323 322 323 323 323 321 321 320 322 325 308 306 306 306 306 305 304 302 301
323 325 309 317 307 301 327 330 324 324 321 320 319 313 311 310 307 331 326 323 321 321 325 323 318 321 319 323 324 322 319 306 303 304 305 304 302 318
321 323 327 306 302 298 306 329 325 322 317 324 325 323 320 319 323 327 329 328 323 323 323 325 321 320 321 320 322 322 321 320 319 316 301 301 301 309
319 323 326 304 298 297 306 304 301 312 323 321 322 322 321 323 325 327 327 328 328 328 325 328 323 323 322 320 321 322 321 322 321 320 322 313 301 299
314 314 302 298 296 302 299 299 304 322 320 321 322 322 324 325 326 326 327 327 328 328 326 326 327 323 323 322 322 323 319 325 323 320 321 322 321 319
307 312 308 304 304 309 307 309 322 322 322 323 322 323 323 323 324 325 325 325 325 325 327 327 328 327 324 324 323 323 323 323 324 322 321 321 322 323
312 312 314 315 313 316 317 317 321 321 323 322 322 322 322 323 323 324 323 323 323 322 323 325 326 325 319 322 323 323 323 324 325 325 322 321 314 312
313 315 315 319 319 318 317 318 321 318 323 324 324 324 322 321 322 321 321 323 321 320 322 325 324 320 318 315 310 317 323 323 323 321 320 319 314 311
317 318 317 320 321 320 320 320 320 323 324 324 325 324 320 322 320 320 321 321 319 320 322 324 322 318 314 314 315 300 318 320 319 320 317 315 312 305
316 320 319 319 321 320 321 321 322 321 323 324 324 321 322 321 320 320 319 319 319 317 317 321 319 317 315 314 312 304 292 311 315 312 312 312 307 297
316 319 319 318 320 320 320 320 320 320 321 322 321 320 321 319 317 318 315 305 309 315 315 318 317 296 320 320 307 298 296 293 298 298 302 308 309 301
318 318 318 319 320 321 322 322 319 320 321 322 322 323 323 321 317 315 316 318 319 318 317 319 319 320 317 310 300 299 299 298 295 294 293 294 297 294
318 319 319 320 321 322 322 322 322 322 323 323 322 322 320 317 317 318 319 319 319 319 316 308 305 301 298 297 293 293 293 294 294 293 291 292 291 293
Wind_Speed
6 4 5 4 3 6 5 4 3 6 7 3 3 1 1 2 3 5 3 2 3 2 2 2 3 3 3 5 5 4 5 7 7 8 9 9 11 13
3 4 5 4 6 6 7 5 7 8 8 2 3 2 1 3 4 4 3 2 4 4 1 4 2 2 3 4 6 5 5 7 7 8 9 9 10 11
5 6 9 7 7 6 6 6 7 8 10 6 3 3 1 2 3 3 3 1 1 5 7 7 7 5 5 4 6 5 4 4 6 5 6 7 8 7
6 6 9 7 10 9 7 9 9 10 8 14 3 2 1 2 2 2 2 2 1 4 5 8 7 7 5 5 4 5 5 4 4 3 3 4 5 5
7 7 10 8 10 8 7 8 10 8 9 7 3 1 1 1 2 1 2 1 1 2 6 10 6 6 5 4 4 2 2 3 3 4 3 4 6 7
7 7 10 10 11 10 8 12 7 8 6 5 3 3 2 2 1 2 3 2 2 1 6 6 3 4 4 2 3 2 2 3 5 4 5 5 7 8
7 8 9 12 14 14 7 7 6 5 5 6 3 4 3 3 4 3 2 1 3 2 3 1 0 0 1 1 1 2 4 4 5 5 7 6 5 7
9 9 10 11 12 17 17 17 12 9 8 7 6 5 5 4 4 4 3 3 2 2 3 2 2 1 2 1 2 3 5 6 6 6 4 3 2 2
9 8 9 7 9 11 13 14 12 11 8 12 10 7 6 8 7 5 5 3 3 3 3 1 4 3 2 2 4 2 2 4 4 4 4 4 4 3
10 9 9 11 11 11 9 8 8 8 7 7 8 7 5 8 9 6 6 5 3 4 3 2 1 2 0 2 5 5 3 3 3 3 3 3 4 4
10 8 8 11 13 12 10 10 7 5 3 2 3 6 12 12 9 7 5 5 2 2 4 2 2 1 1 2 2 5 4 5 4 4 4 4 4 3
9 7 11 13 12 8 10 8 7 5 7 6 4 4 6 6 11 5 7 7 4 2 5 4 2 2 0 0 1 2 2 4 4 5 4 3 4 2
8 5 6 12 11 11 13 10 8 10 5 5 5 6 4 6 5 4 6 6 5 2 4 4 3 2 0 1 1 1 3 4 3 3 6 7 7 7
10 5 6 11 8 9 9 8 12 11 7 5 5 5 5 5 5 5 6 5 1 1 6 6 3 2 2 0 1 0 2 3 3 4 4 4 7 7
10 7 9 7 8 5 4 8 11 8 7 5 6 5 4 5 7 6 6 5 2 2 4 6 4 4 2 0 2 1 2 1 3 3 3 4 4 2
13 5 6 7 6 6 6 7 5 6 7 6 5 4 5 5 6 4 4 4 3 2 3 4 4 3 2 1 1 2 1 2 1 2 2 2 3 3
4 3 4 5 7 5 4 5 4 6 6 5 6 6 6 6 5 4 4 3 3 3 3 4 4 6 7 4 1 1 2 1 2 1 1 1 6 6
4 4 6 8 7 6 6 5 5 7 6 6 7 7 7 7 6 4 2 4 4 3 3 3 4 3 2 5 10 4 3 3 3 4 3 2 5 7
5 7 7 8 8 7 6 7 9 8 9 7 7 8 6 6 7 5 5 5 4 3 3 3 3 3 2 2 3 19 5 4 1 4 5 5 4 4
7 7 7 8 8 7 8 10 7 7 7 6 7 6 7 7 6 7 5 5 5 3 2 2 1 2 2 2 5 4 16 5 5 5 4 2 4 2
8 6 7 8 7 8 8 8 9 8 7 7 6 6 6 5 5 5 4 6 6 3 3 3 2 1 6 7 7 6 9 17 14 8 4 4 4 5
6 7 7 7 7 8 8 8 7 8 7 8 7 7 7 6 6 6 5 7 5 4 5 5 4 4 4 5 8 7 4 7 10 16 18 13 5 4
7 7 7 8 8 8 9 9 9 8 8 8 7 7 6 6 5 5 6 5 6 7 8 6 6 6 7 6 7 6 8 3 3 6 9 11 14 8
Wind_Direction
235 237 238 234 184 219 216 199 215 284 289 269 278 287 279 98 128 127 130 142 126 69 357 319 272 283 303 305 287 280 257 217 209 219 237 232 221 217
217 242 242 239 226 226 226 214 213 231 264 226 242 277 263 111 145 118 114 168 66 54 360 37 13 9 332 304 283 277 243 236 200 217 229 228 229 227
235 231 246 235 235 221 210 214 217 214 242 266 250 236 223 156 123 115 120 112 77 39 47 43 25 25 354 313 276 271 258 243 241 224 234 229 224 229
252 231 249 238 239 230 212 228 224 218 219 246 227 229 210 241 126 137 101 75 55 28 49 53 35 42 18 15 3 21 12 349 318 302 277 268 263 259
258 261 268 242 250 236 207 235 234 227 216 240 231 192 171 202 122 120 131 152 75 51 68 69 45 51 52 50 51 37 13 328 289 275 260 249 260 267
258 257 261 253 252 243 214 228 204 190 192 204 182 216 182 170 127 177 208 202 216 150 75 62 49 50 47 43 46 343 310 285 281 275 252 254 267 253
265 263 260 256 250 252 245 236 216 191 180 193 189 211 174 178 193 159 198 168 220 148 88 99 268 87 47 29 19 319 295 281 270 249 260 251 244 249
270 273 267 258 258 252 251 245 211 201 195 194 190 216 181 195 153 156 165 185 187 150 122 189 207 209 196 205 233 254 261 251 248 250 229 189 176 190
246 258 271 268 257 258 247 246 248 244 201 196 189 194 168 187 146 165 193 176 157 125 174 205 200 210 198 175 207 222 261 254 241 224 188 174 166 175
251 251 259 271 270 262 258 249 230 206 207 213 207 175 177 155 168 185 169 134 105 97 173 232 158 232 249 217 182 182 207 221 213 204 200 195 177 190
253 248 253 266 267 256 248 254 234 181 111 176 85 152 143 142 152 142 147 150 116 141 192 223 160 221 257 270 239 204 209 212 220 212 205 203 194 202
258 249 238 250 266 238 224 221 193 176 198 141 118 91 103 155 177 174 151 150 112 182 188 194 155 196 100 152 299 180 226 248 262 254 226 210 176 217
251 258 257 251 246 227 210 184 192 143 163 129 131 111 142 166 179 140 153 140 142 204 175 175 153 144 121 330 343 208 224 233 239 249 230 232 219 217
252 246 255 253 227 213 215 183 145 133 133 126 132 149 169 160 158 146 148 123 142 248 165 190 129 148 141 224 300 68 252 243 236 249 255 261 230 229
252 245 283 226 160 156 215 182 159 128 123 150 170 179 168 149 135 119 100 105 140 137 171 191 135 142 150 219 322 291 319 188 220 239 249 260 270 233
248 249 216 184 187 148 139 203 132 120 162 169 168 145 129 154 144 132 118 146 165 160 116 143 129 125 141 230 264 308 279 334 24 235 240 243 255 253
169 161 178 178 178 176 164 157 114 135 167 152 156 151 152 154 138 139 112 153 167 164 134 127 106 83 60 22 321 318 323 352 2 341 186 63 56 41
183 199 197 198 184 178 162 150 158 176 168 163 156 156 157 154 148 128 139 170 152 151 137 133 141 132 133 87 29 359 38 24 34 50 46 90 82 55
222 204 191 190 193 175 170 168 184 173 162 160 157 159 145 152 140 163 163 156 141 133 117 125 138 144 162 136 128 42 10 26 33 69 51 52 77 68
213 210 178 178 183 173 168 178 158 133 159 156 157 145 154 154 157 165 166 149 129 114 115 133 131 133 127 129 102 38 9 36 30 45 44 98 83 102
211 183 171 162 167 167 160 160 153 156 158 154 150 148 142 136 126 139 123 131 125 117 128 109 71 46 110 117 104 69 54 44 58 48 358 53 74 58
173 166 163 144 162 148 143 144 135 140 147 149 149 146 149 150 140 140 147 148 140 124 104 95 94 113 77 97 109 123 123 84 69 62 52 49 6 26
156 159 148 147 146 132 139 142 141 147 146 135 138 144 144 141 134 141 138 123 127 120 113 99 74 66 69 78 86 76 67 43 36 59 55 39 45 38